DIANT EDFH-EDFH

Flight info

Callsign DIANT
Flight time N/A
Altitude
Route
Aircraft DA42

Departure

Time 2026-04-30 19:38
Airport Frankfurt-Hahn Airport (EDFH)

Arrival

Time N/A
Airport Frankfurt-Hahn Airport (EDFH)
Time Latitude Longitude Altitude Speed Heading
2026-04-30 19:35 49.94294 7.26436 1650 ft 0 kts 123°
2026-04-30 19:36 49.94362 7.26418 1649 ft 17 kts 47°
2026-04-30 19:36 49.94456 7.26415 1648 ft 18 kts 300°
2026-04-30 19:36 49.94708 7.26227 1645 ft 53 kts 33°
2026-04-30 19:37 49.95145 7.26661 1715 ft 87 kts 28°
2026-04-30 19:37 49.95659 7.26570 1948 ft 86 kts 285°
2026-04-30 19:37 49.95246 7.25796 2041 ft 111 kts 220°
2026-04-30 19:37 49.94569 7.25032 2191 ft 124 kts 219°
2026-04-30 19:38 49.93863 7.24239 2427 ft 120 kts 218°
2026-04-30 19:38 49.93743 7.23264 2906 ft 98 kts 315°
2026-04-30 19:38 49.94149 7.23540 3008 ft 81 kts 115°
2026-04-30 19:38 49.93748 7.23518 3251 ft 58 kts 308°
2026-04-30 19:39 49.93641 7.23882 2582 ft 84 kts 240°
2026-04-30 19:39 49.93947 7.23911 2369 ft 109 kts 112°
2026-04-30 19:39 49.93585 7.23807 2361 ft 78 kts 295°
2026-04-30 19:39 49.93985 7.24034 2264 ft 106 kts 115°
2026-04-30 19:40 49.93491 7.23883 2508 ft 90 kts 253°
2026-04-30 19:40 49.93902 7.23303 2725 ft 112 kts 15°
2026-04-30 19:40 49.94035 7.24430 2881 ft 124 kts 163°
2026-04-30 19:40 49.93477 7.23692 3027 ft 98 kts 243°
2026-04-30 19:41 49.93385 7.22907 2830 ft 103 kts 346°
2026-04-30 19:41 49.93420 7.23553 2794 ft 91 kts 192°
2026-04-30 19:41 49.93008 7.22984 2772 ft 91 kts 281°
2026-04-30 19:41 49.93314 7.22176 2324 ft 88 kts 248°
2026-04-30 19:42 49.93090 7.22628 1650 ft 105 kts 30°
2026-04-30 19:42 49.93709 7.22852 1425 ft 79 kts 356°
2026-04-30 19:42 49.94196 7.22707 1343 ft 60 kts 338°
2026-04-30 19:42 49.94578 7.22318 1540 ft 73 kts 334°
2026-04-30 19:43 49.95034 7.22714 1811 ft 99 kts 84°
2026-04-30 19:43 49.94520 7.23229 1996 ft 111 kts 192°
2026-04-30 19:43 49.94166 7.22548 2383 ft 97 kts 315°
2026-04-30 19:44 49.94425 7.22922 2610 ft 117 kts 52°
2026-04-30 19:44 49.93952 7.23149 2778 ft 112 kts 242°
2026-04-30 19:44 49.94307 7.22138 2895 ft 134 kts 336°
2026-04-30 19:44 49.95282 7.22002 2966 ft 145 kts 348°
2026-04-30 19:45 49.96242 7.21579 3096 ft 145 kts 332°
2026-04-30 19:45 49.97114 7.20765 3182 ft 150 kts 321°
2026-04-30 19:45 49.97899 7.19703 3130 ft 152 kts 312°